Orbital Elements
Epoch 2013 Mar. 9.0 TT = JDT 2456360.5
T 2013 Mar. 17.31504 TT MPCLINUX
q 1.3596229 (2000.0) P Q
n 0.15082695 Peri. 128.29957 +0.94056168 +0.32004413
a 3.4952916 Node 213.47782 -0.33833582 +0.91208566
e 0.6110130 Incl. 11.88951 +0.02953983 +0.25626451
P 6.53
From 323 observations 2006 Aug. 23-2019 June 29, mean residual 0".7.
|